Regional Weather Roundup
Issued by NWS

Home | Current Version | Previous Version | Graphics & Text | Print | Product List | Glossary On
Versions: 1 2 3 4 5 6 7 8 9 10 11 12 13 14 15 16 17 18 19 20 21 22 23 24 25 26 27 28 29 30 31 32 33 34 35 36 37 38 39 40 41 42 43 44 45 46 47 48 49 50
000
ASUS45 KBOI 200510
RWRID
WEATHER ROUNDUP FOR IDAHO
NATIONAL WEATHER SERVICE BOISE ID
1100 PM MDT SUN OCT 19 2014

NOTE: "FAIR" INDICATES FEW OR NO CLOUDS BELOW 12000 FEET
WITH NO SIGNIFICANT WEATHER AND/OR OBSTRUCTIONS TO VISIBILITY

IDZ012-014-200600-
SOUTHWEST IDAHO


CITY           SKY/WX    TMP DP  RH WIND       PRES   REMARKS
BOISE          NOT AVBL
CALDWELL       NOT AVBL
$$

IDZ016-017-200600-
SOUTHCENTRAL IDAHO


CITY           SKY/WX    TMP DP  RH WIND       PRES   REMARKS
JEROME         NOT AVBL
TWIN FALLS     NOT AVBL
$$

IDZ019>023-200600-
SOUTHEAST IDAHO


CITY           SKY/WX    TMP DP  RH WIND       PRES   REMARKS
IDAHO FALLS    NOT AVBL
POCATELLO      NOT AVBL
REXBURG        NOT AVBL
$$

IDZ006-010-011-018-031-032-200600-
CENTRAL IDAHO MOUNTAINS


CITY           SKY/WX    TMP DP  RH WIND       PRES   REMARKS
MCCALL         NOT AVBL
STANLEY          N/A     39  26  59 SE7       30.09F WCI  34
SALMON         NOT AVBL
CHALLIS        NOT AVBL
$$

IDZ002-004-006-007-026-200600-
NORTHERN IDAHO


CITY           SKY/WX    TMP DP  RH WIND       PRES   REMARKS
LEWISTON       NOT AVBL
LOWELL         NOT AVBL
COEUR D`ALENE  NOT AVBL
MULLAN PASS    NOT AVBL
$$


USA.gov is the U.S. government's official web portal to all federal, state and local government web resources and services.